Live-Position
3D-Globus wird geladen...
Über OneWeb SL0144
Group: 3 satellites
Beschreibung wird geladen...
Nächste Überflüge
Passes for default location (London). Set your location on the main map for personalized predictions.
Höhenverlauf
Loading altitude history...
No altitude history available
Zweizeiliger Elementsatz
1 47289U 20100AH 26106.94771145 -.00000002 00000-0 -41271-4 0 9999
2 47289 87.9007 2.8326 0001752 79.6036 280.5289 13.12441035256618
Epoch: 16. Apr. 2026 •
Age: 6 hours
Aktueller Status
Höhe 1215.4 km
Geschwindigkeit 7.25 km/s
Subsatellitenpunkt 17.43°N,
93.29°E
Startdatum 18. Dez. 2020
Alter 5.3 years
Typ internet
Startgruppe
Unknown Vehicle •
OneWeb Launch 4 •
36 satellites
OneWeb SL0128
47258
OneWeb SL0135 47259
OneWeb SL0145 47260
OneWeb SL0139 47261
OneWeb SL0127 47262
OneWeb SL0133 47263
OneWeb SL0118 47264
OneWeb SL0134 47265
OneWeb SL0102 47266
OneWeb SL0123 47267
OneWeb SL0110 47268
OneWeb SL0120 47269
OneWeb SL0131 47270
OneWeb SL0142 47271
OneWeb SL0130 47272
OneWeb SL0136 47273
OneWeb SL0137 47274
OneWeb SL0147 47275
OneWeb SL0124 47276
OneWeb SL0126 47277
...and 15 more
Technische Details
Klassifizierung Payload
Masse 148.00 kg
Trockenmasse 140.00 kg
Gesamtmasse 148.00 kg
Länge 1.30 m
Durchmesser 1.00 m
Spannweite 5.00 m
Form Trapezoid+2 pan
Hersteller ONEWUS
Bus-Typ ARROW
Phasenstatus In Orbit
Besitzer/Staat ONEWEB/UK
Most Searched
Loading...